EA1CUE-WX Weather Reports


time (UTC)temp
C
wind
direction
speed
KPH
gust
KPH
rain 1hr
cm
rain 24hr
cm
rain mn
cm
humidity
%
barometer
mb
20260507100346 13 351 1.6 9.7 0.00 0.00 0.00 22 1008.5
20260507095846 13 273 0.0 9.7 0.00 0.00 0.00 23 1008.5
20260507095346 13 47 3.2 9.7 0.00 0.00 0.00 17 1008.5
20260507094846 13 333 0.0 11.3 0.00 0.00 0.00 8 1008.5
20260507094346 12 70 9.7 11.3 0.00 0.00 0.00 17 1008.6
20260507093846 13 75 6.4 11.3 0.00 0.00 0.00 19 1008.5
20260507093346 13 94 3.2 8.0 0.00 0.00 0.00 14 1008.6
20260507092846 13 316 1.6 6.4 0.00 0.00 0.00 12 1008.7
20260507092346 12 357 0.0 8.0 0.00 0.00 0.00 10 1008.6
20260507091846 12 45 3.2 8.0 0.00 0.00 0.00 1 1008.7
20260507091346 12 96 4.8 6.4 0.00 0.00 0.00 1 1008.6
20260507090846 12 48 0.0 9.7 0.00 0.00 0.00 3 1008.6
20260507090346 12 30 0.0 9.7 0.00 0.00 0.00 1 1008.7
20260507085846 11 94 0.0 11.3 0.00 0.00 0.00 1 1008.6
20260507085346 11 87 0.0 8.0 0.00 0.00 0.00 1 1008.6
20260507084846 11 144 3.2 9.7 0.00 0.00 0.00 1 1008.6
20260507084346 11 98 6.4 9.7 0.00 0.00 0.00 1 1008.6
20260507083846 11 113 3.2 12.9 0.00 0.00 0.00 2 1008.6
20260507083346 11 20 1.6 9.7 0.00 0.00 0.00 1 1008.6
20260507082846 11 30 1.6 3.2 0.00 0.00 0.00 1 1008.6
20260507082346 11 56 0.0 8.0 0.00 0.00 0.00 1 1008.6
20260507081846 10 93 9.7 9.7 0.00 0.00 0.00 1 1008.7
20260507081346 10 74 3.2 8.0 0.00 0.00 0.00 1 1008.8
20260507080846 10 86 8.0 9.7 0.00 0.00 0.00 1 1008.8
20260507080346 11 56 1.6 8.0 0.00 0.00 0.00 1 1008.8
20260507075846 10 72 3.2 6.4 0.00 0.00 0.00 1 1008.7
20260507075346 11 72 3.2 4.8 0.00 0.00 0.00 1 1008.7
20260507074846 11 81 0.0 0.0 0.00 0.00 0.00 1 1008.7
20260507074346 10 96 0.0 0.0 0.00 0.00 0.00 1 1008.7
20260507073846 10 62 0.0 4.8 0.00 0.00 0.00 1 1008.8
20260507073346 9 99 3.2 4.8 0.00 0.00 0.00 1 1008.8
20260507072846 9 84 1.6 3.2 0.00 0.00 0.00 1 1008.8
20260507072346 10 60 0.0 1.6 0.00 0.00 0.00 1 1008.9
20260507071846 10 110 0.0 0.0 0.00 0.00 0.00 1 1008.8
20260507071346 9 68 0.0 1.6 0.00 0.00 0.00 1 1008.9
20260507070846 9 88 0.0 3.2 0.00 0.00 0.00 1 1009.0
20260507070346 9 68 3.2 3.2 0.00 0.00 0.00 1 1009.1
20260507065846 10 123 0.0 0.0 0.00 0.00 0.00 1 1009.1
20260507065346 9 138 0.0 3.2 0.00 0.00 0.00 1 1009.0
20260507064846 10 103 0.0 3.2 0.00 0.00 0.00 1 1009.0
20260507064346 10 121 0.0 0.0 0.00 0.00 0.00 1 1009.1
20260507063846 10 110 0.0 0.0 0.00 0.00 0.00 1 1009.0
20260507063346 10 234 0.0 0.0 0.00 0.00 0.00 1 1009.1
20260507062846 9 235 0.0 0.0 0.00 0.00 0.00 1 1009.1
20260507062346 8 235 0.0 0.0 0.00 0.00 0.00 1 1009.1
20260507061846 7 235 0.0 0.0 0.00 0.00 0.00 1 1009.1
20260507061346 7 235 0.0 0.0 0.00 0.00 0.00 1 1009.1
20260507060846 7 101 0.0 0.0 0.00 0.00 0.00 1 1009.1
20260507060346 6 91 0.0 0.0 0.00 0.00 0.00 1 1009.2
20260507055846 6 292 0.0 1.6 0.00 0.00 0.00 1 1009.1
20260507055346 6 273 0.0 1.6 0.00 0.00 0.00 1 1009.2
20260507054846 6 321 0.0 0.0 0.00 0.00 0.00 1 1009.1
20260507054346 6 321 0.0 1.6 0.00 0.00 0.00 1 1009.1
20260507053846 7 321 0.0 0.0 0.00 0.00 0.00 1 1009.0
20260507053346 7 321 0.0 3.2 0.00 0.00 0.00 1 1009.1
20260507052846 6 320 0.0 4.8 0.00 0.00 0.00 1 1009.2
20260507052346 6 285 1.6 8.0 0.00 0.00 0.00 1 1009.2
20260507051846 6 257 0.0 11.3 0.00 0.00 0.00 1 1009.2
20260507051346 6 309 0.0 1.6 0.00 0.00 0.00 1 1008.9
20260507050846 6 277 0.0 3.2 0.00 0.00 0.00 1 1009.2
20260507050346 6 200 1.6 3.2 0.00 0.00 0.00 1 1009.3
20260507045846 6 257 0.0 0.0 0.00 0.00 0.00 1 1009.3
20260507045346 6 257 0.0 0.0 0.00 0.00 0.00 1 1009.4
20260507044846 6 257 0.0 0.0 0.00 0.00 0.00 1 1009.5
20260507044346 6 257 0.0 0.0 0.00 0.00 0.00 1 1009.5
20260507043846 6 257 0.0 0.0 0.00 0.00 0.00 1 1009.4
20260507043346 6 257 0.0 0.0 0.00 0.00 0.00 1 1009.4
20260507042846 6 257 0.0 0.0 0.00 0.00 0.00 1 1009.4
20260507042346 6 257 0.0 0.0 0.00 0.00 0.00 1 1009.4
20260507041846 6 257 0.0 0.0 0.00 0.00 0.00 1 1009.4
20260507041346 6 257 0.0 0.0 0.00 0.00 0.00 1 1009.4
20260507040846 6 257 0.0 0.0 0.00 0.00 0.00 1 1009.5
20260507040346 6 257 0.0 0.0 0.00 0.00 0.00 1 1009.6
20260507035846 6 257 0.0 0.0 0.00 0.00 0.00 1 1009.6
20260507035346 6 257 0.0 0.0 0.00 0.00 0.00 1 1009.7
20260507034846 6 257 0.0 0.0 0.00 0.00 0.00 1 1009.7
20260507034346 6 257 0.0 1.6 0.00 0.00 0.00 1 1009.7
20260507033846 6 257 0.0 1.6 0.00 0.00 0.00 1 1009.8
20260507033346 6 243 0.0 0.0 0.00 0.00 0.00 1 1009.8
20260507032846 6 242 0.0 0.0 0.00 0.00 0.00 1 1009.9
20260507032346 6 243 0.0 0.0 0.00 0.00 0.00 1 1009.9
20260507031846 6 243 0.0 0.0 0.00 0.00 0.00 1 1009.9
20260507031346 6 242 0.0 0.0 0.00 0.00 0.00 1 1009.9
20260507030846 6 242 0.0 0.0 0.00 0.00 0.00 1 1010.0
20260507030346 6 243 0.0 0.0 0.00 0.00 0.00 1 1010.0
20260507025846 6 242 0.0 0.0 0.00 0.00 0.00 1 1010.1
20260507025346 6 242 0.0 0.0 0.00 0.00 0.00 1 1010.1
20260507024846 6 242 0.0 0.0 0.00 0.00 0.00 1 1010.2
20260507024346 6 242 0.0 0.0 0.00 0.00 0.00 1 1010.2
20260507023846 6 243 0.0 0.0 0.00 0.00 0.00 1 1010.2
20260507023346 6 242 0.0 0.0 0.00 0.00 0.00 1 1010.3
20260507022846 6 243 0.0 0.0 0.00 0.00 0.00 1 1010.2
20260507022346 6 243 0.0 0.0 0.00 0.00 0.00 1 1010.3
20260507021846 6 240 0.0 0.0 0.00 0.00 0.00 1 1010.4
20260507021346 6 240 0.0 0.0 0.00 0.00 0.00 1 1010.5
20260507020846 6 240 0.0 0.0 0.00 0.00 0.00 1 1010.5
20260507020346 6 240 0.0 0.0 0.00 0.00 0.00 1 1010.5
20260507015846 6 240 0.0 0.0 0.00 0.00 0.00 1 1010.6
20260507015346 6 240 0.0 0.0 0.00 0.00 0.00 1 1010.6
20260507014846 6 240 0.0 0.0 0.00 0.00 0.00 1 1010.7
20260507014346 6 240 0.0 0.0 0.00 0.00 0.00 1 1010.7
20260507013846 6 240 0.0 0.0 0.00 0.00 0.00 1 1010.8
20260507013346 6 240 0.0 0.0 0.00 0.00 0.00 1 1010.8
20260507012846 6 131 0.0 0.0 0.00 0.00 0.00 1 1010.9
20260507012346 6 131 0.0 0.0 0.00 0.00 0.00 1 1010.9
20260507011847 6 131 0.0 0.0 0.00 0.00 0.00 1 1011.0
20260507011346 6 129 0.0 0.0 0.00 0.00 0.00 1 1011.1
20260507010846 6 127 0.0 1.6 0.00 0.00 0.00 1 1011.2
20260507010346 6 121 0.0 1.6 0.00 0.00 0.00 1 1011.2
20260507005846 6 264 0.0 1.6 0.00 0.00 0.00 1 1011.2
20260507005346 6 272 0.0 1.6 0.00 0.00 0.00 1 1011.3
20260507004846 6 272 0.0 0.0 0.00 0.00 0.00 1 1011.3
20260507004346 6 272 0.0 0.0 0.00 0.00 0.00 1 1011.4
20260507003846 6 272 0.0 0.0 0.00 0.00 0.00 1 1011.4
20260507003346 6 272 0.0 0.0 0.00 0.00 0.00 1 1011.5
20260507002846 6 272 0.0 0.0 0.00 0.00 0.00 1 1011.6
20260507002346 6 272 0.0 0.0 0.00 0.00 0.00 1 1011.6
20260507001846 6 272 0.0 0.0 0.00 0.00 0.00 1 1011.6
20260507001346 6 272 0.0 0.0 0.00 0.00 0.00 1 1011.6
20260507000846 6 271 0.0 0.0 0.00 0.00 0.00 1 1011.7
20260507000346 6 272 0.0 0.0 0.00 0.00 0.00 1 1011.7
20260506235846 6 272 0.0 0.0 0.00 0.00 0.00 1 1011.7
20260506235346 7 272 0.0 0.0 0.00 0.00 0.00 1 1011.8
20260506234846 7 272 0.0 0.0 0.00 0.00 0.00 1 1011.8
20260506234346 7 272 0.0 0.0 0.00 0.00 0.00 1 1011.8
20260506233846 7 272 0.0 0.0 0.00 0.00 0.00 1 1011.9
20260506233346 7 263 0.0 0.0 0.00 0.00 0.00 1 1011.9
20260506232846 7 248 0.0 6.4 0.00 0.00 0.00 1 1011.9
20260506232346 7 264 0.0 9.7 0.00 0.00 0.00 1 1012.0
20260506231846 7 274 3.2 6.4 0.00 0.00 0.00 1 1012.0
20260506231346 7 263 3.2 4.8 0.00 0.00 0.00 1 1012.0
20260506230846 7 278 0.0 1.6 0.00 0.00 0.00 1 1012.0
20260506230346 7 279 1.6 3.2 0.00 0.00 0.00 1 1012.0
20260506225846 7 281 0.0 3.2 0.00 0.00 0.00 1 1012.0
20260506225346 7 278 0.0 0.0 0.00 0.00 0.00 1 1012.1
20260506224846 7 264 0.0 3.2 0.00 0.00 0.00 1 1012.1
20260506224346 7 314 1.6 3.2 0.00 0.00 0.00 1 1012.2
20260506223846 7 271 0.0 3.2 0.00 0.00 0.00 1 1012.2
20260506223346 7 271 0.0 3.2 0.00 0.00 0.00 1 1012.2
20260506222846 7 303 0.0 3.2 0.00 0.00 0.00 1 1012.2
20260506222346 7 302 0.0 4.8 0.00 0.00 0.00 1 1012.3
20260506221846 7 270 1.6 4.8 0.00 0.00 0.00 1 1012.3
20260506221346 7 255 0.0 3.2 0.00 0.00 0.00 1 1012.3
20260506220846 7 298 0.0 4.8 0.00 0.00 0.00 1 1012.4
20260506220346 7 264 0.0 3.2 0.00 0.00 0.00 1 1012.4
20260506215846 7 274 0.0 4.8 0.00 0.00 0.00 1 1012.4
20260506215346 7 307 1.6 8.0 0.00 0.00 0.00 1 1012.5
20260506214846 7 288 3.2 11.3 0.00 0.00 0.00 1 1012.5
20260506214346 7 256 3.2 11.3 0.00 0.00 0.00 1 1012.4
20260506213846 7 296 1.6 9.7 0.00 0.00 0.00 1 1012.5
20260506213346 8 264 0.0 8.0 0.00 0.00 0.00 1 1012.4
20260506212846 8 288 3.2 4.8 0.00 0.00 0.00 1 1012.5
20260506212346 8 273 0.0 8.0 0.00 0.00 0.00 1 1012.6
20260506211846 8 262 0.0 8.0 0.00 0.00 0.00 1 1012.6
20260506211346 8 276 0.0 4.8 0.00 0.00 0.00 1 1012.6
20260506210846 8 293 3.2 9.7 0.00 0.00 0.00 1 1012.6
20260506210346 8 223 1.6 8.0 0.00 0.00 0.00 1 1012.6
20260506205846 8 270 1.6 4.8 0.00 0.00 0.00 1 1012.5
20260506205346 8 303 3.2 4.8 0.00 0.00 0.00 1 1012.6
20260506204846 8 2 0.0 4.8 0.00 0.00 0.00 1 1012.5
20260506204346 8 310 0.0 4.8 0.00 0.00 0.00 1 1012.4
20260506203846 8 258 0.0 8.0 0.00 0.00 0.00 1 1012.3
20260506203346 8 316 0.0 9.7 0.00 0.00 0.00 1 1012.4
20260506202846 8 300 4.8 8.0 0.00 0.00 0.00 1 1012.3
20260506202346 8 276 3.2 11.3 0.00 0.00 0.00 1 1012.3
20260506201846 8 310 1.6 8.0 0.00 0.00 0.00 1 1012.3
20260506201346 9 258 1.6 6.4 0.00 0.00 0.00 1 1012.2
20260506200846 9 326 1.6 9.7 0.00 0.00 0.00 1 1012.2
20260506200346 9 298 3.2 6.4 0.00 0.00 0.00 1 1012.1
20260506195846 9 240 3.2 3.2 0.00 0.00 0.00 1 1012.1
20260506195346 10 255 0.0 8.0 0.00 0.00 0.00 1 1012.1
20260506194846 10 221 0.0 1.6 0.00 0.00 0.00 2 1011.9
20260506194346 10 297 0.0 8.0 0.00 0.00 0.00 6 1011.9
20260506193846 10 291 0.0 3.2 0.00 0.00 0.00 10 1011.8
20260506193346 10 278 3.2 3.2 0.00 0.00 0.00 15 1011.8
20260506192846 11 277 0.0 3.2 0.00 0.00 0.00 20 1011.8
20260506192346 11 323 0.0 0.0 0.00 0.00 0.00 28 1011.6
20260506191846 11 323 0.0 4.8 0.00 0.00 0.00 36 1011.7
20260506191346 11 11 1.6 3.2 0.00 0.00 0.00 43 1011.6
20260506190846 11 240 0.0 0.0 0.00 0.00 0.00 46 1011.6
20260506190346 11 240 0.0 0.0 0.00 0.00 0.00 48 1011.5
20260506185846 11 240 0.0 0.0 0.00 0.00 0.00 48 1011.5
20260506185346 11 240 0.0 0.0 0.00 0.00 0.00 46 1011.5
20260506184846 11 240 0.0 0.0 0.00 0.00 0.00 46 1011.5
20260506184346 12 240 0.0 0.0 0.00 0.00 0.00 43 1011.5
20260506183846 12 240 0.0 1.6 0.00 0.00 0.00 45 1011.5
20260506183346 12 167 0.0 0.0 0.00 0.00 0.00 47 1011.5
20260506182846 12 114 0.0 0.0 0.00 0.00 0.00 47 1011.4
20260506182346 12 114 0.0 0.0 0.00 0.00 0.00 49 1011.5
20260506181846 12 114 0.0 3.2 0.00 0.00 0.00 50 1011.5
20260506181346 12 269 0.0 8.0 0.00 0.00 0.00 49 1011.6
20260506180846 12 110 0.0 14.5 0.00 0.00 0.00 50 1011.6
20260506180346 12 113 8.0 12.9 0.00 0.00 0.00 50 1011.7
20260506175846 13 183 0.0 3.2 0.00 0.00 0.00 50 1011.7
20260506175346 13 198 3.2 3.2 0.00 0.00 0.00 50 1011.7
20260506174846 13 243 0.0 3.2 0.00 0.00 0.00 50 1011.7
20260506174346 13 255 1.6 1.6 0.00 0.00 0.00 49 1011.6
20260506173846 13 253 0.0 4.8 0.00 0.00 0.00 49 1011.6
20260506173346 13 256 0.0 9.7 0.00 0.00 0.00 49 1011.6
20260506172846 13 327 4.8 8.0 0.00 0.00 0.00 49 1011.6
20260506172346 13 266 4.8 11.3 0.00 0.00 0.00 48 1011.6
20260506171846 13 268 0.0 6.4 0.00 0.00 0.00 48 1011.5
20260506171346 13 339 6.4 11.3 0.00 0.00 0.00 49 1011.6
20260506170846 13 303 6.4 9.7 0.00 0.00 0.00 48 1011.6
20260506170346 13 276 0.0 14.5 0.00 0.00 0.00 48 1011.6
20260506165846 13 340 6.4 12.9 0.00 0.00 0.00 48 1011.6
20260506165346 13 297 3.2 9.7 0.00 0.00 0.00 47 1011.5
20260506164846 13 267 3.2 8.0 0.00 0.00 0.00 47 1011.5
20260506164346 12 285 1.6 12.9 0.00 0.00 0.00 48 1011.5
20260506163846 13 299 4.8 12.9 0.00 0.00 0.00 46 1011.6
20260506163346 12 267 4.8 11.3 0.00 0.00 0.00 45 1011.5
20260506162846 12 271 3.2 12.9 0.00 0.00 0.00 42 1011.4
20260506162346 12 303 3.2 11.3 0.00 0.03 0.00 42 1011.4
20260506161846 11 272 3.2 12.9 0.00 0.05 0.00 24 1011.4
20260506161346 11 304 9.7 11.3 0.00 0.10 0.00 32 1011.4
20260506160846 11 288 4.8 9.7 0.00 0.10 0.00 37 1011.4
20260506160346 11 277 8.0 8.0 0.00 0.10 0.00 45 1011.6
20260506155846 12 316 3.2 12.9 0.00 0.10 0.00 47 1011.6
20260506155346 12 271 6.4 16.1 0.00 0.10 0.00 49 1011.6
20260506154846 12 276 4.8 14.5 0.00 0.10 0.00 50 1011.6
20260506154346 12 212 4.8 17.7 0.00 0.10 0.00 51 1011.6
20260506153846 12 305 8.0 17.7 0.00 0.10 0.00 52 1011.6
20260506153346 12 275 1.6 12.9 0.00 0.10 0.00 51 1011.6
20260506152846 13 261 8.0 9.7 0.00 0.10 0.00 51 1011.6
20260506152346 13 307 4.8 11.3 0.00 0.10 0.00 51 1011.6
20260506151846 13 340 3.2 11.3 0.00 0.10 0.00 51 1011.6
20260506151346 13 339 6.4 6.4 0.00 0.10 0.00 51 1011.6
20260506150846 13 278 1.6 9.7 0.00 0.10 0.00 51 1011.7
20260506150346 14 299 0.0 9.7 0.00 0.10 0.00 50 1011.7
20260506145846 14 240 1.6 6.4 0.00 0.10 0.00 50 1011.7
20260506145346 14 305 3.2 9.7 0.00 0.10 0.00 50 1011.7
20260506144846 15 254 3.2 9.7 0.00 0.10 0.00 49 1011.7
20260506144346 15 272 3.2 8.0 0.00 0.10 0.00 48 1011.7
20260506143846 16 271 0.0 4.8 0.00 0.10 0.00 49 1011.8
20260506143346 16 331 1.6 8.0 0.00 0.10 0.00 49 1011.8
20260506142846 16 302 6.4 11.3 0.00 0.10 0.00 49 1011.7
20260506142346 16 242 1.6 11.3 0.00 0.10 0.00 48 1011.7
20260506141846 16 317 0.0 4.8 0.00 0.10 0.00 48 1011.7
20260506141346 16 46 0.0 8.0 0.00 0.10 0.00 48 1011.7
20260506140846 16 76 4.8 4.8 0.00 0.10 0.00 48 1011.7
20260506140346 16 257 0.0 9.7 0.00 0.10 0.00 48 1011.8
20260506135846 16 354 1.6 8.0 0.00 0.15 0.00 48 1011.7
20260506135346 15 55 1.6 6.4 0.00 0.18 0.00 48 1011.8
20260506134846 15 340 3.2 9.7 0.00 0.18 0.00 47 1011.8
20260506134346 16 314 0.0 4.8 0.00 0.18 0.00 47 1011.9
20260506133846 15 37 0.0 3.2 0.00 0.18 0.00 47 1011.8
20260506133346 14 351 0.0 6.4 0.00 0.20 0.00 49 1011.9
20260506132846 14 342 0.0 4.8 0.00 0.20 0.00 49 1012.0
20260506132346 14 290 1.6 4.8 0.00 0.20 0.00 49 1012.1
20260506131846 14 275 0.0 8.0 0.00 0.20 0.00 49 1012.1
20260506131346 14 334 1.6 4.8 0.00 0.20 0.00 48 1012.1
20260506130846 13 263 1.6 4.8 0.00 0.20 0.00 48 1012.1
20260506130346 13 324 0.0 6.4 0.00 0.20 0.00 48 1012.1
20260506125846 13 52 0.0 3.2 0.00 0.20 0.00 48 1012.1
20260506125346 14 329 0.0 1.6 0.00 0.20 0.00 48 1012.2
20260506124846 14 339 1.6 4.8 0.00 0.20 0.00 47 1012.2
20260506124346 15 319 0.0 4.8 0.00 0.20 0.00 46 1012.2
20260506123846 15 126 0.0 3.2 0.00 0.20 0.00 45 1012.2
20260506123346 14 24 0.0 9.7 0.00 0.20 0.00 46 1012.3
20260506122846 14 44 0.0 4.8 0.00 0.20 0.00 45 1012.4
20260506122346 14 29 0.0 6.4 0.00 0.20 0.00 46 1012.5
20260506121846 14 40 0.0 3.2 0.00 0.20 0.00 46 1012.6
20260506121346 15 332 0.0 3.2 0.00 0.20 0.00 44 1012.6
20260506120846 14 43 1.6 11.3 0.00 0.20 0.00 44 1012.6
20260506120346 14 11 1.6 6.4 0.00 0.20 0.00 45 1012.7
20260506115846 13 8 0.0 4.8 0.00 0.20 0.00 46 1012.8
20260506115346 14 325 3.2 8.0 0.00 0.20 0.00 46 1012.7
20260506114846 14 330 0.0 9.7 0.00 0.20 0.00 43 1012.7
20260506114346 14 286 1.6 8.0 0.00 0.20 0.00 45 1012.8
20260506113846 14 334 1.6 9.7 0.00 0.20 0.00 45 1012.9
20260506113346 14 268 0.0 4.8 0.00 0.20 0.00 44 1012.9
20260506112846 13 15 0.0 3.2 0.00 0.20 0.00 43 1012.9
20260506112346 13 79 0.0 3.2 0.00 0.20 0.00 44 1012.9
20260506111846 12 109 0.0 4.8 0.00 0.20 0.00 46 1013.0
20260506111346 13 31 0.0 6.4 0.00 0.20 0.00 44 1013.1
20260506110846 12 41 0.0 3.2 0.00 0.20 0.00 41 1013.1
20260506110346 12 328 0.0 3.2 0.00 0.20 0.00 42 1013.1
20260506105846 12 101 0.0 3.2 0.00 0.20 0.00 46 1013.1
20260506105346 12 17 0.0 0.0 0.00 0.20 0.00 43 1013.1
20260506104846 11 323 0.0 0.0 0.00 0.20 0.00 45 1013.1
20260506104346 11 323 0.0 0.0 0.00 0.20 0.00 43 1013.1
20260506103846 11 323 0.0 6.4 0.00 0.20 0.00 43 1013.2
20260506103346 11 311 0.0 3.2 0.00 0.20 0.00 40 1013.3
20260506102846 11 63 1.6 1.6 0.00 0.20 0.00 40 1013.2
20260506102346 11 41 0.0 0.0 0.00 0.20 0.00 36 1013.2
20260506101846 11 313 0.0 4.8 0.00 0.20 0.00 41 1013.2
20260506101346 12 8 0.0 3.2 0.00 0.20 0.00 39 1013.2
20260506100846 12 333 0.0 3.2 0.00 0.20 0.00 42 1013.2